   Observers K. Korlević, D. Pujagic, V. Dobos. Measurers D. Pujagic, K.
   Korlević. 1.0-m f/2.9 reflector + CCD.
(L04) ROASTERR-1 Observatory, Cluj-Napoca  (N46.820952 E23.596400)  Romania.
   Observer L. Hudin. 0.3-m f/5 reflector + CCD0.1-m f/9 refractor + CCD.
(L65) Bredenkamp Observatory, Bremen  (N53.075279 E8.828310)  Germany.
   Observer H. Duin. 0.23-m f/6.3 reflector + CMO.

Orbital elements:  C43XEJ1
   Perihelion 2024 Oct 13.38386 +/- 0.0346 TT =  9:12:45 (JD 2460596.88386)
Epoch 2024 Dec  1.0 TT = JDT 2460645.5   Earth MOID: 0.0501   Ve: 0.0038
M  17.26872646 +/- 0.09             Ma: 0.0308                   AutoNEOCP
n   0.35520563 +/- 0.00174          Peri.  356.93071 +/- 0.06
a   1.97461677 +/- 0.00646          Node   351.00560 +/- 0.08
e   0.6734413 +/- 0.00134           Incl.    2.96497 +/- 0.0051
P   2.77475                H 21.38  G  0.15   U  8.5
q 0.64482814 +/- 0.00054    Q 3.30440539 +/- 0.0135       (J2000 ecliptic)
83 of 85 observations 2024 Nov. 29-Dec. 1 (44.7 hr); mean residual 0".30
Residuals in arcseconds: 
241129 703  .24+  .10-    241130 204  .02+  .02+    241130 L04  .07-  .12-    
241129 703  .06-  .57-    241130 511  .03-  .06+    241130 G34  .04+  .11+    
241129 703  .05+  .18+    241130 958  .09-  .31+    241130 L04  .21-  .22-    
241129 703  .21+  .51+    241130 511  .01+  .02-    241130 C43  .21-  .06-    
241129 I52  .25-  .22-    241130 511  .07-  .02+    241130 B72  .64+  .31+    
241129 I52  .08+  .09-    241130 511  .02-  .05+    241130 C43  .05+  .03-    
241129 I52  .06+  .19-    241130 511  .21+  .09-    241130 C43  .13+  .08-    
241129 I52  .17-  .15-    241130 L01  .28-  .18-    241130 B72  .12-  .12-    
241129 K83  .65-  .22-    241130 958  .32-  .04+    241130 C43  .52+  .48+    
241129 K83( 430+  240-)   241130 L01  .18-  .13-    241130 B72  .16-  .04+    
241129 K83  .81-  .40-    241130 L01  .12-  .05+    241130 C43  .52+  .95+    
241129 K83( 436+  237-)   241130 L01  .01-  .05+    241201 K74  .32+  .15-    
241129 K83  .47+  .52+    241130 L01  .17-  .03+    241201 K74  .14+  .06+    
241129 104  .24-  .94-    241130 L01  .01+  .18-    241201 K74  .18+  .18-    
241129 104  .78+  .10-    241130 958  .08+  .33+    241201 K74  .43+  .25-    
241129 104  .01-  .36+    241130 033  .00   .01+    241201 033  .03+  .16+    
241129 104  .03+  .24-    241130 033  .27+  .07+    241201 033  .10+  .18-    
241130 K19  .32+  .71+    241130 033  .07-  .10-    241201 033  .19+  .10-    
241130 K19  .14+  .28+    241130 K74  .04-  .23+    241201 K87  .61-  .05+    
241130 K19  .63-  .45+    241130 K74  .04+  .04-    241201 K87  .03+  .66+    
241130 595  .06-  .02-    241130 K74  .26-  .13+    241201 K87  .69-  .19+    
241130 K62  .14+  .01-    241130 900  .30+  .06-    241201 L65  .02-  .07-    
241130 K62  .02+  .19-    241130 900  .06+  .08+    241201 L65  .09+  .01-    
241130 K62  .11+  .06-    241130 900  .03-  .22-    241201 L65  .01-  .13-    
241130 595  .25+  .04-    241130 L04  .55-  .12+    241201 718  .71-  1.2-    
241130 K62  .13+  .13-    241130 G34  .03+  .23+    241201 718  .75+  .45-    
241130 204  .05+  .02-    241130 G34  .15+  .18-    241201 718  .31-  .16+    
241130 595  .16+  .15-    241130 L04  .12-  .37-    
241130 204  .01+  .04-    241130 G34  .25+  .61+    

Ephemerides (geocentric):
Date (UTC) HH   RA             Dec           delta  r     elong  mag " sig PA
---- --------  ------------   ------------  ------ ------ -----  --- --------
2024 12 01 13  09 54 38.612   +48 04 00.55  .09681 1.0263 112.1 18.6 .068 161
2024 12 01 14  09 53 20.980   +48 06 09.94  .09700 1.0268 112.3 18.6 .066 167
2024 12 01 15  09 52 03.540   +48 08 15.56  .09720 1.0273 112.6 18.6 .065 173
2024 12 01 16  09 50 46.298   +48 10 17.46  .09740 1.0277 112.8 18.6 .065 179
2024 12 01 17  09 49 29.258   +48 12 15.67  .09760 1.0282 113.1 18.6 .065   6
2024 12 01 18  09 48 12.422   +48 14 10.20  .09780 1.0287 113.3 18.6 .067  13
2024 12 01 19  09 46 55.795   +48 16 01.10  .09800 1.0291 113.6 18.6 .069  19
2024 12 01 20  09 45 39.380   +48 17 48.39  .09820 1.0296 113.8 18.6 .072  25
2024 12 01 21  09 44 23.182   +48 19 32.11  .09840 1.0300 114.1 18.6 .077  30
2024 12 01 22  09 43 07.203   +48 21 12.27  .09861 1.0305 114.3 18.6 .081  35
2024 12 01 23  09 41 51.447   +48 22 48.93  .09882 1.0310 114.6 18.6 .087  40
2024 12 02 00  09 40 35.918   +48 24 22.09  .09903 1.0314 114.8 18.6 .093  44
2024 12 02 01  09 39 20.618   +48 25 51.81  .09924 1.0319 115.1 18.6 .100  47
2024 12 02 02  09 38 05.552   +48 27 18.10  .09945 1.0324 115.3 18.6 .107  50
2024 12 02 03  09 36 50.722   +48 28 41.01  .09966 1.0328 115.5 18.6 .115  53
2024 12 02 04  09 35 36.131   +48 30 00.55  .09987 1.0333 115.8 18.6 .122  55
2024 12 02 05  09 34 21.783   +48 31 16.77  .10009 1.0337 116.0 18.6 .131  57
2024 12 02 06  09 33 07.680   +48 32 29.70  .10030 1.0342 116.3 18.6 .139  59
2024 12 02 07  09 31 53.825   +48 33 39.37  .10052 1.0347 116.5 18.6 .148  61
2024 12 02 08  09 30 40.221   +48 34 45.81  .10074 1.0351 116.7 18.6 .157  62
2024 12 02 09  09 29 26.871   +48 35 49.05  .10096 1.0356 117.0 18.6 .166  64
2024 12 02 10  09 28 13.778   +48 36 49.13  .10118 1.0361 117.2 18.6 .176  65
2024 12 02 11  09 27 00.943   +48 37 46.08  .10140 1.0365 117.4 18.6 .186  66
2024 12 02 12  09 25 48.370   +48 38 39.94  .10163 1.0370 117.7 18.6 .196  67
2024 12 02 13  09 24 36.062   +48 39 30.73  .10185 1.0375 117.9 18.6 .206  68
2024 12 02 14  09 23 24.019   +48 40 18.49  .10208 1.0379 118.1 18.6 .216  68
2024 12 02 15  09 22 12.245   +48 41 03.25  .10230 1.0384 118.4 18.6 .226  69
2024 12 02 16  09 21 00.742   +48 41 45.04  .10253 1.0389 118.6 18.6 .237  70
2024 12 02 17  09 19 49.512   +48 42 23.91  .10276 1.0393 118.8 18.6 .248  70
2024 12 02 18  09 18 38.557   +48 42 59.87  .10299 1.0398 119.1 18.6 .259  71
2024 12 02 19  09 17 27.879   +48 43 32.97  .10322 1.0402 119.3 18.6 .270  71
2024 12 02 20  09 16 17.480   +48 44 03.24  .10346 1.0407 119.5 18.6 .281  72
2024 12 02 21  09 15 07.362   +48 44 30.71  .10369 1.0412 119.8 18.6 .292  72
2024 12 02 22  09 13 57.526   +48 44 55.42  .10393 1.0416 120.0 18.6 .303  72
2024 12 02 23  09 12 47.975   +48 45 17.39  .10416 1.0421 120.2 18.6 .315  73
2024 12 03 00  09 11 38.710   +48 45 36.66  .10440 1.0426 120.4 18.6 .326  73
2024 12 03 01  09 10 29.732   +48 45 53.26  .10464 1.0430 120.6 18.6 .338  73
2024 12 03 02  09 09 21.044   +48 46 07.23  .10488 1.0435 120.9 18.6 .349  73
2024 12 03 03  09 08 12.645   +48 46 18.59  .10512 1.0440 121.1 18.6 .361  74
2024 12 03 04  09 07 04.539   +48 46 27.39  .10537 1.0444 121.3 18.6 .373  74
2024 12 03 05  09 05 56.726   +48 46 33.65  .10561 1.0449 121.5 18.6 .385  74
2024 12 03 06  09 04 49.207   +48 46 37.41  .10585 1.0453 121.8 18.6 .397  74
2024 12 03 07  09 03 41.984   +48 46 38.70  .10610 1.0458 122.0 18.6 .409  74
2024 12 03 08  09 02 35.057   +48 46 37.54  .10635 1.0463 122.2 18.6 .422  74
2024 12 03 09  09 01 28.429   +48 46 33.98  .10659 1.0467 122.4 18.6 .434  74
2024 12 03 10  09 00 22.098   +48 46 28.05  .10684 1.0472 122.6 18.6 .446  74
2024 12 03 11  08 59 16.068   +48 46 19.77  .10709 1.0477 122.8 18.6 .459  75
2024 12 03 12  08 58 10.338   +48 46 09.18  .10734 1.0481 123.1 18.6 .471  75